Wetbulb
35.87 34.79 33.91 34.75 35.69 34.31 36.72 34.25 34.54 39.45 39.77 39.84 39.61 39.84 40.71 40.98 40.23 40.30 40.74 41.29 41.47 41.37 41.14 41.90 42.55 42.99 43.48
32.95 31.00 31.47 31.98 31.46 31.51 33.57 33.75 31.29 35.32 37.94 38.66 38.88 38.55 39.98 40.19 40.20 39.59 39.41 39.02 39.67 39.12 39.67 40.80 41.22 41.91 42.32
32.14 32.06 29.45 29.48 28.70 29.23 29.65 29.35 32.33 35.57 37.71 38.43 37.23 37.97 38.55 39.01 38.69 38.75 37.85 37.27 37.42 38.18 39.19 39.46 39.82 39.87 40.10
31.42 29.68 29.52 27.83 27.54 27.04 26.44 27.50 28.22 32.26 34.04 34.65 35.39 35.70 36.60 36.76 37.11 36.32 36.22 36.51 37.49 38.20 38.18 38.23 38.77 39.12 39.89
30.72 29.85 27.92 27.03 26.35 25.83 25.02 25.47 25.48 26.99 26.60 27.27 26.96 26.91 27.52 32.50 33.17 34.75 35.84 36.59 37.10 37.04 37.22 37.59 37.73 37.97 38.22
27.55 27.70 25.68 26.19 26.28 26.09 25.85 24.47 23.25 27.06 24.89 24.50 25.66 25.39 26.78 26.46 33.01 35.10 35.45 36.04 35.84 35.98 36.41 36.59 36.71 36.90 37.19
26.82 24.91 24.02 25.28 26.17 26.03 25.11 24.11 23.69 26.40 26.30 24.50 25.67 25.41 27.04 28.75 32.78 33.91 34.86 35.18 34.60 34.85 35.08 35.49 35.92 36.28 36.18
27.00 26.01 26.60 27.41 28.05 27.37 26.01 25.72 26.86 27.11 27.03 23.38 26.46 25.56 26.02 26.53 31.21 33.07 34.70 33.45 34.02 33.98 34.33 34.46 34.65 34.80 34.97
35.03 35.36 35.17 34.38 31.27 27.80 25.39 25.25 24.88 25.57 26.03 24.97 25.77 25.28 26.42 24.85 25.62 31.32 32.16 32.57 32.60 32.85 33.43 33.43 33.47 33.64 31.15
29.43 31.34 31.22 31.50 32.49 28.25 27.33 24.77 25.00 22.59 25.90 24.92 25.42 23.75 21.36 26.07 26.52 26.64 25.60 29.73 31.22 31.73 31.88 32.01 31.96 27.38 26.18
24.72 24.81 25.66 26.49 26.57 27.37 28.07 27.34 24.26 23.65 27.25 24.89 23.44 24.64 22.62 23.30 25.51 26.45 25.76 24.67 24.11 25.78 28.89 29.76 30.25 30.31 25.85
25.57 24.76 25.13 26.01 27.24 27.42 27.90 27.75 28.02 26.35 27.46 27.06 18.45 22.22 19.15 21.71 21.21 24.87 25.56 26.05 24.86 23.84 23.64 26.74 29.27 29.72 30.25
25.52 26.08 26.82 27.02 27.63 27.76 28.05 28.11 28.03 27.68 28.07 27.22 23.45 23.22 21.96 21.49 21.02 21.80 22.64 23.64 24.09 23.25 21.31 22.43 22.81 23.33 22.13
26.48 26.86 27.19 27.04 25.96 26.82 24.05 25.43 23.63 24.56 26.99 26.65 25.88 23.59 15.49 21.33 21.54 20.44 21.50 19.89 21.97 22.38 22.43 22.68 23.42 23.96 23.71
26.45 25.99 26.63 26.41 25.79 25.74 24.41 21.73 19.31 20.63 22.03 22.36 23.43 23.77 22.96 20.84 18.80 19.56 19.45 19.68 20.96 21.07 21.20 20.52 22.13 23.09 23.12
24.68 24.17 24.41 24.15 24.19 22.48 19.41 16.33 14.62 17.16 18.50 17.29 13.19 11.23 11.43 16.52 24.64 19.24 19.45 19.08 20.32 20.89 21.34 19.85 19.38 21.79 22.90
25.52 23.81 20.15 17.14 22.50 17.35 18.37 17.13 16.25 18.10 19.92 15.33 7.20 7.00 11.98 12.36 16.83 25.44 18.23 16.85 19.58 19.11 19.19 18.61 17.88 19.85 21.68
MSLP
1020.43 1020.74 1021.38 1021.86 1022.42 1022.95 1023.28 1023.60 1023.66 1023.49 1023.61 1023.83 1023.88 1023.86 1024.25 1024.22 1024.46 1024.14 1024.08 1024.04 1024.06 1024.28 1023.93 1023.90 1023.61 1023.40 1023.22
1020.44 1021.00 1021.78 1022.54 1022.79 1023.14 1023.37 1023.50 1023.70 1023.66 1023.59 1023.68 1023.70 1023.92 1023.99 1024.14 1024.08 1023.97 1023.84 1024.09 1024.15 1024.12 1024.07 1023.85 1023.41 1023.08 1022.87
1020.43 1021.38 1022.23 1022.90 1023.42 1023.53 1023.61 1023.74 1023.63 1023.58 1023.47 1023.39 1023.63 1023.73 1023.81 1023.74 1023.70 1023.63 1023.60 1023.83 1023.93 1023.88 1023.77 1023.52 1023.15 1022.94 1022.84
1020.53 1021.51 1022.26 1022.91 1023.27 1023.60 1023.85 1023.84 1023.82 1023.66 1023.60 1023.57 1023.57 1023.60 1023.59 1023.51 1023.47 1023.62 1023.58 1023.57 1023.57 1023.50 1023.34 1023.23 1022.76 1022.62 1022.12
1020.41 1021.49 1022.21 1022.74 1023.25 1023.42 1023.66 1023.89 1024.00 1023.99 1023.99 1023.88 1023.84 1023.78 1023.60 1023.60 1023.65 1023.57 1023.53 1023.40 1023.24 1023.21 1023.11 1022.76 1022.46 1022.24 1021.92
1020.38 1021.36 1022.14 1022.48 1022.94 1023.44 1023.61 1024.04 1024.25 1024.07 1024.06 1023.88 1023.80 1023.75 1023.69 1023.70 1023.56 1023.38 1023.29 1023.09 1023.00 1023.02 1022.73 1022.50 1022.19 1021.83 1021.48
1019.92 1021.02 1021.81 1022.19 1022.54 1023.11 1023.34 1023.66 1023.96 1023.92 1023.86 1023.79 1023.67 1023.64 1023.39 1023.35 1023.31 1023.18 1022.91 1022.84 1022.99 1022.80 1022.46 1022.18 1021.78 1021.39 1021.18
1019.89 1020.84 1021.27 1021.96 1022.34 1022.58 1023.07 1023.53 1023.81 1023.99 1023.88 1023.90 1023.70 1023.64 1023.25 1023.20 1023.04 1022.70 1022.50 1022.75 1022.74 1022.48 1022.14 1021.82 1021.52 1021.12 1020.79
1020.53 1020.93 1021.30 1021.71 1022.28 1022.94 1023.34 1023.58 1023.78 1024.01 1024.24 1024.28 1023.97 1023.62 1023.09 1023.06 1022.95 1022.66 1022.64 1022.62 1022.40 1022.16 1021.79 1021.49 1021.10 1020.64 1020.32
1021.29 1021.60 1022.06 1022.21 1022.49 1022.94 1023.22 1023.56 1023.88 1024.11 1024.14 1024.34 1024.15 1024.16 1023.64 1023.00 1022.83 1022.78 1022.70 1022.41 1022.07 1021.74 1021.40 1020.96 1020.60 1020.31 1020.13
1021.89 1022.35 1022.72 1022.82 1023.12 1023.29 1023.20 1023.35 1023.74 1023.84 1023.91 1024.13 1024.33 1024.33 1024.33 1023.64 1022.65 1022.31 1022.40 1022.05 1021.76 1021.22 1020.89 1020.52 1020.21 1019.91 1019.62
1022.35 1022.67 1022.88 1022.96 1023.07 1023.29 1023.37 1023.45 1023.44 1023.55 1023.63 1023.87 1024.23 1024.28 1024.24 1023.83 1022.95 1021.80 1021.51 1021.12 1020.90 1020.59 1020.47 1020.16 1019.77 1019.45 1019.05
1022.42 1022.65 1022.74 1022.79 1022.95 1023.23 1023.24 1023.22 1023.24 1023.28 1023.30 1023.49 1023.80 1023.81 1023.90 1023.54 1022.85 1021.95 1021.31 1020.29 1020.37 1020.15 1020.09 1019.81 1019.30 1018.95 1018.43
1022.45 1022.60 1022.71 1022.91 1023.11 1023.19 1023.21 1023.20 1023.35 1023.25 1023.15 1023.19 1023.31 1023.37 1023.45 1022.96 1022.57 1021.55 1021.24 1021.10 1019.93 1019.78 1019.41 1018.79 1018.30 1017.90 1017.37
1022.44 1022.58 1022.73 1022.92 1023.05 1023.16 1023.32 1023.46 1023.61 1023.46 1023.25 1023.15 1022.99 1022.82 1022.57 1022.29 1021.82 1021.00 1020.56 1020.21 1019.85 1019.35 1018.85 1017.79 1017.07 1016.72 1016.14
1022.36 1022.56 1022.83 1022.99 1023.05 1023.15 1023.22 1023.42 1023.30 1023.08 1022.94 1022.84 1022.73 1022.69 1022.09 1021.34 1020.73 1020.17 1019.96 1019.63 1019.12 1018.75 1018.41 1017.68 1016.15 1015.69 1015.01
1022.16 1022.29 1022.50 1022.76 1022.75 1022.88 1023.00 1022.99 1022.75 1022.52 1022.31 1022.29 1022.87 1022.94 1022.66 1021.54 1020.12 1019.56 1019.32 1018.98 1018.45 1017.83 1017.54 1016.89 1015.81 1014.54 1014.02
Wind_Speed
2 1 3 6 5 4 4 3 0 3 4 5 4 4 6 5 5 5 6 7 8 7 9 10 12 13 13
2 3 4 2 4 5 3 2 2 2 4 5 4 4 5 7 8 7 6 6 7 8 10 13 12 12 11
3 2 3 2 3 3 2 1 1 3 4 4 3 4 5 7 7 7 4 5 7 10 12 12 11 9 11
3 3 3 3 3 3 2 1 1 2 1 1 2 4 6 6 6 5 6 7 9 11 10 10 11 12 13
4 3 2 3 3 2 2 1 1 1 1 2 1 2 2 3 4 6 7 10 11 9 10 11 13 15 15
3 5 4 3 3 3 3 2 1 1 1 3 1 1 2 2 7 10 12 11 6 8 12 14 14 15 16
7 4 4 5 5 3 2 2 2 1 0 2 0 2 2 3 10 13 10 6 6 11 12 15 15 16 16
7 6 5 6 4 4 4 3 1 1 0 1 2 3 3 3 10 7 7 2 11 14 13 16 17 18 19
17 16 15 13 8 4 2 2 1 1 2 1 1 3 2 2 2 4 4 12 13 13 17 19 17 18 10
6 9 8 8 8 3 3 2 1 0 2 2 1 2 4 1 2 3 4 12 14 17 20 18 18 4 5
5 4 4 4 3 2 2 3 2 1 2 2 1 0 2 4 3 4 4 6 6 10 15 17 16 14 7
3 3 3 3 3 3 2 2 2 3 2 3 2 3 2 5 6 3 6 7 6 7 5 12 17 20 20
3 2 2 2 3 1 2 3 3 3 3 3 3 3 3 5 7 8 9 4 7 7 4 7 8 7 10
2 2 2 2 1 2 1 0 1 1 2 4 4 3 3 6 7 11 8 6 5 8 8 9 8 8 9
2 2 1 2 2 1 1 1 2 2 3 2 5 6 6 7 9 9 9 8 7 9 10 12 10 9 10
1 2 3 3 3 2 2 3 3 2 3 2 2 3 3 6 16 9 8 8 8 8 9 11 14 10 10
3 4 3 2 4 2 3 3 3 4 4 3 1 2 5 10 4 13 6 4 10 10 9 9 12 12 11
Wind_Direction
109 101 97 140 127 136 151 143 156 206 217 237 252 275 266 244 262 281 285 283 283 284 298 298 301 298 294
111 88 93 112 126 126 140 117 113 297 263 252 273 276 248 236 275 281 277 285 288 291 291 299 300 296 303
112 96 101 102 89 85 121 101 224 234 239 250 248 253 252 268 281 279 292 275 272 279 293 301 296 301 302
90 99 110 90 99 136 119 62 299 348 22 211 276 285 279 284 288 299 277 265 282 289 299 292 298 294 295
113 118 106 119 166 171 132 125 295 194 296 296 299 311 303 307 297 283 277 288 283 295 293 297 303 300 298
131 140 143 138 119 147 120 127 221 233 14 286 163 246 242 255 280 279 289 277 282 288 301 301 299 300 297
130 133 130 165 141 127 130 130 194 262 151 274 203 266 234 266 295 282 265 247 293 310 307 305 300 299 299
99 132 129 139 132 145 147 140 106 53 290 310 17 272 265 272 290 260 231 266 311 307 304 311 304 299 295
110 114 118 121 123 107 124 122 89 99 33 286 343 301 297 301 289 308 302 314 314 305 308 307 302 298 300
90 90 90 106 100 107 142 112 127 85 194 339 334 3 322 256 255 277 301 300 298 304 306 301 303 292 280
109 110 106 109 117 138 137 137 154 196 191 103 234 248 225 300 277 244 250 273 271 288 293 299 299 294 294
119 131 147 161 168 167 176 190 203 198 237 163 205 189 210 276 271 268 287 280 267 275 282 283 286 290 287
146 163 172 150 138 175 219 233 239 246 232 219 194 238 216 254 279 289 306 298 286 278 264 268 277 276 279
156 151 118 115 183 196 185 309 306 295 271 253 256 229 242 246 264 281 280 276 289 291 284 281 280 268 266
155 150 167 177 217 171 189 134 201 260 264 235 260 261 251 256 277 268 271 269 268 280 291 289 285 280 274
178 188 208 209 213 203 190 191 226 236 248 237 286 337 327 272 238 266 270 271 277 277 277 281 288 286 277
209 216 211 215 257 204 219 216 250 245 246 223 191 134 289 291 265 267 262 268 291 286 279 269 279 282 288